Lapse_Rate
8.7 7.9 8.0 8.5 9.0 9.0 9.2 9.3 9.1 9.0 9.0 8.7 7.1 7.8 7.8 7.3 6.4 5.8 6.0 6.0 5.4 4.7 4.8 4.8 5.1 5.6 5.5 5.4 5.6 5.8 6.0 6.5 6.9 6.9 6.5 6.3 6.3 6.1 6.0 5.6 5.7 5.7 5.6 5.7
8.5 9.0 8.5 9.1 9.3 9.4 9.4 9.5 9.3 9.2 9.0 8.9 8.0 7.7 7.3 7.4 7.3 6.9 6.9 6.7 6.2 4.9 4.9 5.1 5.1 5.4 5.6 5.6 5.5 5.5 5.9 6.5 7.1 6.8 6.5 6.5 6.3 6.1 6.2 6.2 6.2 5.9 5.6 5.4
8.7 9.5 9.5 9.4 9.4 9.4 9.6 9.5 9.4 9.3 9.2 8.6 7.8 7.4 7.3 6.7 6.7 7.0 6.9 6.7 6.4 6.3 6.4 6.1 6.0 5.7 5.6 5.3 5.7 5.9 6.0 6.6 6.5 6.3 6.6 6.6 6.5 6.3 6.2 6.1 5.9 5.9 5.8 5.8
8.8 9.5 9.6 9.7 9.5 9.6 9.5 9.4 9.4 9.4 9.0 8.0 8.7 7.4 7.4 7.1 6.9 7.1 7.4 7.1 6.9 6.4 6.5 6.5 6.5 6.7 6.6 6.1 5.8 6.1 6.3 6.4 6.4 6.5 6.4 6.4 6.4 6.3 6.3 6.0 5.7 6.0 5.7 5.5
9.1 9.5 9.6 9.6 9.7 9.6 9.2 9.3 9.0 9.2 9.5 9.6 8.4 8.1 8.0 7.7 7.1 7.1 7.1 7.0 6.8 6.8 6.9 7.1 6.9 6.6 6.8 6.9 7.0 6.8 6.6 6.6 6.6 6.5 6.4 6.4 6.4 6.3 6.3 6.2 5.7 5.7 5.8 5.6
8.6 9.1 9.5 9.7 9.4 9.2 9.0 9.2 9.2 9.3 9.4 8.2 8.1 8.7 7.6 7.9 8.5 7.7 7.4 7.1 7.1 7.0 7.2 7.2 7.1 6.9 6.8 6.6 6.6 6.6 6.6 6.4 6.3 6.4 6.4 6.5 6.4 6.3 6.3 6.2 6.2 5.9 5.4 4.7
9.2 9.3 9.5 9.3 9.3 9.4 9.4 9.4 9.2 8.3 9.1 7.3 8.4 8.6 9.0 8.2 8.2 8.1 7.9 7.6 7.7 7.5 7.6 7.5 7.4 7.6 7.3 7.1 6.9 6.7 6.5 6.5 6.5 6.4 6.5 6.4 6.6 6.6 6.3 6.1 6.1 6.0 6.1 5.9
9.4 9.8 9.6 9.5 9.3 9.2 9.5 9.6 9.3 8.9 7.2 7.8 8.9 8.6 7.1 7.6 7.9 7.6 8.3 7.7 7.5 8.1 7.9 8.1 8.2 8.0 7.8 7.6 7.2 6.9 7.0 6.8 6.6 6.6 6.8 6.6 6.4 6.5 6.5 6.2 6.1 6.0 6.3 6.0
9.7 9.6 9.6 9.7 9.6 9.3 9.5 9.4 9.6 9.4 9.4 8.0 7.8 8.1 7.5 8.0 7.8 8.0 8.4 8.0 7.3 7.9 8.2 8.0 8.2 7.9 7.7 7.4 7.3 7.1 7.1 7.1 7.1 6.9 6.6 6.8 6.8 6.6 6.6 6.2 6.0 6.0 5.9 5.6
9.6 9.5 9.8 9.7 9.6 9.6 9.3 9.5 9.3 9.5 8.5 7.3 8.1 7.8 8.1 7.8 7.8 7.8 8.0 7.5 8.1 7.3 7.7 8.3 8.0 7.4 7.3 7.2 7.0 6.9 6.8 6.8 6.9 6.9 6.9 6.7 6.8 6.9 6.7 6.5 6.1 6.0 5.8 5.9
9.6 9.6 9.6 9.6 9.5 9.5 9.5 9.5 9.5 9.6 9.4 7.6 6.8 7.3 7.1 7.3 7.4 7.1 7.1 8.0 7.0 7.2 7.6 8.1 7.9 8.2 7.3 7.2 7.1 6.9 6.8 6.6 6.6 6.5 6.8 6.8 6.8 6.8 6.8 6.7 6.3 6.1 5.9 6.1
9.3 9.5 9.6 10.0 9.2 8.9 9.4 9.5 9.3 9.5 9.3 8.9 8.1 6.8 7.3 7.6 7.5 7.6 7.5 7.5 7.9 7.9 8.8 8.9 9.1 8.7 7.9 7.6 7.2 7.0 6.8 6.7 6.6 6.4 7.2 7.2 6.8 6.8 6.7 6.6 6.6 6.4 6.6 6.5
9.3 9.2 9.2 9.6 9.5 9.5 9.5 9.5 9.6 9.6 9.3 8.8 8.2 7.3 7.9 7.8 7.5 7.6 8.0 7.9 8.4 8.8 9.1 9.1 8.8 8.6 8.4 8.1 7.7 7.3 7.2 7.2 7.3 7.3 7.2 7.1 7.2 7.1 7.1 6.8 6.7 6.9 7.2 6.9
9.5 9.2 9.3 9.2 9.3 9.3 9.6 9.5 9.5 9.6 9.4 9.2 9.2 8.6 7.6 8.0 7.7 7.3 7.8 7.5 7.9 8.1 8.6 8.6 8.6 8.3 8.3 8.0 7.5 7.3 7.1 7.2 7.3 7.2 7.3 7.3 7.3 7.1 7.0 6.9 6.7 7.2 7.2 7.2
9.1 8.9 9.3 9.4 9.4 9.8 9.7 9.7 9.5 9.2 9.2 9.5 9.1 8.9 8.1 8.5 8.6 7.3 7.2 7.5 7.8 7.4 8.5 8.4 8.2 8.1 7.9 7.8 7.9 7.8 7.6 7.3 7.1 7.0 6.9 7.0 7.1 7.1 7.2 7.2 7.2 7.0 7.0 7.1
8.9 8.6 8.9 9.1 9.5 9.7 9.7 9.7 9.7 9.4 9.2 9.5 9.7 8.7 8.6 8.5 8.2 8.3 7.8 7.3 7.9 7.6 7.8 8.2 8.1 7.7 7.6 7.6 7.6 7.5 7.2 6.9 6.9 6.8 6.6 6.7 6.5 6.5 6.6 6.8 6.8 6.7 6.9 6.9
9.6 9.3 9.2 9.0 9.5 9.6 9.7 9.6 9.6 9.6 9.5 9.5 9.5 9.3 8.9 8.5 8.2 8.2 7.7 7.7 7.4 6.6 7.1 7.3 7.5 7.6 7.6 7.4 7.3 7.4 7.2 6.9 6.8 6.9 7.0 7.0 6.9 6.7 6.4 6.4 6.3 6.4 6.5 6.5
9.6 9.5 9.7 9.6 9.6 9.0 9.6 9.7 9.6 9.6 9.6 9.5 9.5 9.1 9.2 9.1 8.7 7.7 7.3 7.5 7.3 7.2 7.1 6.7 7.1 7.8 7.7 7.5 7.3 7.1 7.1 7.1 7.1 7.1 7.0 7.0 6.7 6.6 6.5 6.5 6.5 6.4 6.4 6.3
9.4 9.3 9.4 9.4 9.6 9.4 9.5 9.6 9.4 9.5 9.4 9.5 9.2 9.2 8.9 8.7 8.3 7.9 7.7 7.8 7.4 7.3 7.1 7.5 7.7 7.6 7.4 7.2 7.3 7.3 7.2 7.1 7.1 7.1 7.0 6.8 6.7 6.6 6.4 6.4 6.4 6.3 6.3 6.1
8.9 9.0 9.3 9.3 9.4 8.8 9.6 9.6 9.6 9.5 9.5 9.2 9.3 9.3 8.8 8.9 8.7 7.8 8.0 8.0 7.6 7.5 7.7 7.9 7.7 7.2 7.1 7.2 7.1 6.9 6.9 7.1 7.0 6.9 6.7 6.6 6.6 6.5 6.5 6.4 6.3 6.2 6.1 6.1
8.7 9.0 9.3 9.6 9.5 9.4 9.4 9.3 9.5 9.4 9.0 8.9 9.1 9.5 9.4 8.9 8.4 7.9 7.5 7.8 7.6 7.7 7.8 7.8 7.5 7.4 7.2 7.2 7.2 7.1 6.9 6.9 7.0 6.9 6.8 6.8 6.6 6.4 6.3 6.2 6.1 6.0 6.0 5.9
8.5 8.9 9.1 9.3 8.9 8.8 9.4 9.6 9.4 9.2 9.3 8.8 9.1 9.1 9.0 8.5 7.7 7.6 7.7 7.6 7.9 8.1 8.0 7.7 7.7 7.5 7.4 7.1 6.9 6.7 6.8 6.9 6.8 6.8 6.6 6.5 6.5 6.3 6.1 6.0 5.9 5.9 5.9 5.8
8.4 8.7 8.9 9.2 9.5 9.2 9.4 9.5 9.3 9.4 9.3 8.9 8.4 8.5 8.5 8.2 7.8 7.7 8.0 7.7 7.6 7.6 7.6 7.5 7.3 7.2 7.0 6.9 6.8 6.6 6.7 6.7 6.7 6.6 6.4 6.3 6.2 6.0 5.9 5.9 5.9 5.8 5.8 5.8
8.1 8.4 8.7 8.9 9.2 9.2 9.2 8.6 9.1 9.6 9.5 9.2 9.0 8.4 7.9 7.9 7.7 7.7 8.0 7.8 7.5 7.3 7.4 7.1 7.3 7.4 7.3 7.2 6.9 6.6 6.7 6.7 6.6 6.4 6.2 5.9 5.8 5.8 6.0 6.0 6.0 6.0 6.0 5.9
6.8 7.6 7.7 8.3 8.4 8.8 8.3 8.5 8.1 9.0 9.3 9.1 8.9 8.4 7.9 7.8 7.6 7.6 7.7 8.0 7.8 7.7 7.5 7.4 7.3 7.3 7.3 7.2 6.8 6.8 6.7 6.7 6.6 6.4 6.0 5.8 5.9 5.9 5.9 6.0 6.0 6.0 6.0 5.6
7.8 7.4 6.8 6.7 7.0 7.4 8.3 8.6 8.0 8.8 8.9 9.1 8.8 8.6 8.3 7.9 7.7 7.4 7.3 7.4 8.0 8.0 7.5 7.2 7.1 7.0 6.9 6.8 6.7 6.7 6.7 6.6 6.4 6.2 6.1 6.0 6.0 5.9 5.9 5.7 5.7 5.7 5.7 5.7
Wind_Speed
13 13 12 20 17 17 18 6 11 7 11 24 23 13 13 12 10 16 14 13 16 17 16 15 14 11 12 8 6 5 6 3 6 2 3 2 4 3 3 6 14 13 15 16
8 2 17 12 14 15 15 6 7 5 5 25 17 12 11 13 14 12 17 15 13 9 14 15 15 13 12 10 11 6 4 5 5 3 2 3 3 4 3 4 10 13 13 13
9 10 14 9 14 14 6 6 6 10 6 16 18 5 7 6 10 13 14 13 14 14 13 15 16 17 14 11 10 8 8 8 6 7 3 3 2 2 2 2 3 8 14 15
9 13 10 10 10 5 4 7 4 4 7 10 6 3 4 3 7 14 15 15 15 17 17 17 17 15 17 14 10 10 8 8 7 8 4 6 4 4 4 3 3 4 16 15
13 10 8 8 7 3 6 9 5 6 6 1 6 6 4 5 8 10 15 16 15 17 18 19 21 19 17 16 14 13 13 11 8 8 9 5 5 4 4 3 1 2 8 15
13 13 6 2 5 6 7 7 8 6 3 4 4 5 9 9 18 5 8 13 14 17 18 18 19 18 17 16 16 15 15 14 13 11 10 8 8 7 4 3 1 2 5 8
16 13 13 3 6 9 7 3 4 5 3 5 9 6 7 5 3 2 5 1 12 15 15 15 17 17 16 18 19 16 17 16 15 14 14 11 10 8 7 4 4 3 5 9
5 9 9 8 9 6 7 4 5 3 5 4 7 2 5 12 17 15 8 10 10 15 15 18 19 18 19 20 22 20 20 18 18 17 13 13 12 8 5 4 4 5 5 11
3 7 4 7 4 2 9 5 7 2 3 9 3 3 4 11 18 18 15 20 21 8 20 20 21 20 20 19 23 22 19 20 19 18 15 10 7 9 7 7 5 4 6 5
4 4 8 12 7 6 6 7 6 5 2 5 3 2 5 8 16 18 14 19 29 9 21 18 14 19 18 20 19 19 16 20 19 18 13 11 10 7 7 6 6 5 5 1
3 3 4 3 3 6 6 6 4 1 2 4 5 0 7 11 16 19 15 24 24 30 17 8 5 7 12 18 17 15 12 13 12 12 10 7 7 7 6 6 6 6 6 7
3 2 4 3 5 7 5 9 3 5 9 4 5 2 7 7 12 25 29 32 25 30 11 8 8 8 8 6 15 11 12 12 12 10 8 10 7 7 7 7 9 9 7 7
5 2 5 4 7 10 5 7 4 4 5 1 5 4 6 7 8 12 3 12 8 13 10 8 9 8 8 8 9 8 9 9 9 9 11 8 9 8 8 8 8 9 7 8
5 3 3 3 6 4 8 8 8 5 5 1 4 6 6 11 13 11 14 17 3 3 9 8 7 7 7 7 8 8 6 6 1 4 2 7 6 4 6 5 6 6 7 8
4 4 3 9 11 13 6 5 8 6 5 3 9 15 17 21 20 16 12 6 5 12 11 10 8 7 7 9 11 10 8 8 8 7 7 7 6 5 6 4 3 4 4 2
3 4 3 7 10 10 5 9 3 6 4 3 7 9 16 15 2 13 17 7 7 10 10 11 10 8 9 9 9 9 7 7 10 9 8 7 7 7 6 6 6 6 5 6
4 5 2 7 9 6 3 8 3 4 6 6 6 7 22 16 15 18 11 11 11 13 14 11 10 10 10 8 7 9 10 10 10 9 8 9 9 8 8 7 6 5 3 2
6 4 1 5 4 2 8 5 4 4 1 6 3 23 26 28 26 19 10 15 11 17 12 9 10 11 10 10 10 10 9 8 8 7 7 7 7 7 7 7 7 7 6 6
6 3 2 3 2 5 7 6 8 5 6 5 5 6 23 18 12 8 19 17 15 16 14 14 11 12 13 12 8 9 8 7 7 6 6 5 6 6 6 7 7 5 6 5
10 7 4 4 3 5 7 5 6 5 4 6 6 6 18 17 13 8 21 22 17 16 17 16 15 13 11 7 8 8 7 7 6 5 4 4 4 4 4 4 4 3 3 5
7 4 5 5 5 6 5 2 6 4 6 3 6 10 11 9 14 17 19 16 15 17 17 15 12 9 8 7 8 8 7 6 3 4 4 3 2 3 2 2 2 3 4 5
6 4 4 4 6 13 2 6 1 8 4 5 6 7 8 15 23 21 17 16 17 19 18 16 13 10 7 7 8 7 7 3 4 3 3 3 1 2 2 3 4 5 5 5
5 6 5 6 6 6 2 5 9 4 5 5 10 14 19 21 21 19 18 18 16 17 14 13 12 9 7 7 7 7 4 4 2 3 2 3 4 3 3 3 5 3 5 5
11 13 4 7 10 6 9 8 23 8 7 7 9 17 22 23 22 21 20 17 14 12 14 12 11 8 7 6 6 7 5 2 3 4 5 6 5 6 6 5 5 3 5 5
4 9 8 5 17 14 13 7 8 14 6 6 6 14 22 25 22 22 18 17 15 14 11 11 9 8 7 7 7 6 6 7 5 6 5 6 5 6 6 5 4 3 1 2
3 7 5 7 9 3 10 17 3 12 8 5 4 5 22 22 21 21 18 14 14 15 15 12 9 9 7 7 7 7 7 7 4 5 4 4 4 4 4 4 5 7 4 6
Wind_Direction
276 125 241 237 218 252 270 210 152 159 149 139 206 148 146 137 128 149 156 163 178 190 181 171 171 149 149 164 173 201 161 150 133 137 154 229 247 235 243 171 169 164 185 179
298 134 236 251 281 281 277 118 144 140 167 130 147 142 151 150 151 162 160 169 180 174 154 168 142 151 165 176 193 162 176 167 163 160 195 198 210 234 204 193 183 176 174 175
262 223 211 244 274 285 316 88 153 166 190 125 114 115 155 151 151 167 167 173 175 173 167 172 171 169 173 184 199 172 185 203 195 194 189 220 238 297 328 228 172 180 186 181
268 264 219 254 268 346 47 337 359 316 133 152 153 180 332 218 189 174 175 178 185 181 185 181 187 192 183 185 185 179 193 198 196 201 199 203 204 210 221 223 180 166 176 176
259 282 279 243 266 3 268 304 302 283 276 160 84 82 281 336 243 198 181 185 185 180 181 183 186 194 184 182 186 183 193 194 199 198 204 207 208 218 232 222 3 258 190 175
265 278 276 307 312 306 258 272 292 274 223 70 200 108 212 228 205 191 182 181 166 162 175 181 183 188 194 187 187 188 183 197 201 205 210 197 212 234 229 125 120 212 48 22
268 244 256 186 279 282 260 279 302 351 0 185 179 121 224 207 99 60 351 168 175 176 176 176 176 180 187 184 187 189 187 198 204 209 206 203 205 222 245 175 210 243 125 191
273 302 217 199 214 243 294 191 170 209 240 157 143 52 357 58 55 48 19 347 352 190 179 178 187 183 185 183 187 191 187 197 200 205 203 203 208 210 216 217 186 225 196 185
181 306 279 162 251 22 298 344 256 264 263 112 61 26 252 38 38 40 9 334 293 291 182 184 189 192 188 185 188 192 184 194 196 199 205 203 185 198 204 211 203 239 255 143
220 181 240 269 194 271 197 242 342 343 29 107 90 186 200 61 61 30 25 318 295 320 296 192 193 195 190 195 191 192 187 188 193 194 195 200 200 198 203 194 211 214 242 257
39 30 283 38 36 311 343 313 326 125 117 158 150 281 166 154 145 148 143 236 249 257 267 108 82 164 182 193 191 188 178 170 181 187 190 189 193 205 204 207 213 219 220 235
186 204 297 190 84 21 302 296 300 118 298 40 116 48 121 150 170 172 184 208 235 255 91 93 75 59 62 111 177 145 142 155 169 178 173 199 196 202 207 208 222 220 215 209
345 333 1 14 8 343 307 293 8 353 80 40 108 210 182 179 178 235 267 277 311 88 86 81 74 74 74 65 94 112 126 156 171 179 200 198 193 198 206 202 212 231 209 209
72 268 209 186 205 261 290 323 354 31 82 220 162 150 184 156 173 193 228 255 301 255 115 101 95 87 87 93 99 106 100 97 144 146 218 223 212 247 235 231 274 258 229 211
154 238 298 296 178 229 238 306 321 347 324 86 170 152 178 179 176 186 221 218 336 317 131 126 107 105 96 76 74 76 67 69 74 76 62 50 79 87 78 86 34 25 25 52
210 277 305 296 291 284 255 279 238 265 270 293 164 160 182 180 196 171 213 216 260 293 143 128 132 113 92 85 84 81 83 68 70 66 53 41 40 37 55 48 31 21 9 17
179 169 208 256 267 298 23 284 2 17 43 73 51 156 166 178 189 206 200 203 220 236 124 138 129 114 101 100 92 71 71 67 62 58 46 39 34 32 23 20 14 5 4 6
323 353 199 242 326 310 250 313 9 320 20 6 29 148 171 177 192 201 198 188 211 129 130 112 111 102 89 85 86 85 78 74 70 60 48 35 33 27 19 21 14 9 1 345
293 306 302 133 260 256 301 322 50 88 347 8 45 48 172 186 189 199 193 165 132 119 107 104 106 105 98 94 92 87 77 74 67 59 53 40 37 27 15 5 351 357 6 354
306 254 169 294 216 240 247 307 121 106 338 318 342 177 142 121 107 124 114 116 116 106 114 111 105 104 105 111 105 97 91 79 63 48 39 40 57 27 344 344 14 345 347 331
279 316 238 246 238 259 192 349 341 109 215 45 36 124 139 134 146 141 125 120 119 125 122 114 104 102 112 119 110 100 90 77 57 33 6 37 36 351 29 32 329 314 315 318
235 224 232 260 281 288 312 338 84 230 170 117 115 94 117 117 127 129 125 119 113 111 107 104 100 93 81 82 95 98 91 81 46 354 337 1 340 318 327 336 308 314 320 343
272 221 222 188 218 201 342 321 272 110 160 110 114 123 118 122 125 122 117 118 118 119 116 113 112 106 94 86 93 104 112 85 8 335 338 303 288 274 282 301 331 16 66 56
340 20 340 24 352 286 194 7 335 114 87 112 119 136 129 131 132 127 126 128 127 123 125 126 125 124 131 133 107 120 120 114 12 16 351 351 24 26 17 24 15 37 58 41
316 324 324 336 12 355 81 147 209 296 116 66 79 130 144 142 143 139 138 137 136 133 138 137 130 131 131 117 105 98 93 76 45 8 49 38 39 38 27 31 25 32 48 119
301 309 331 320 354 321 303 331 242 222 133 124 111 102 150 149 148 142 141 136 125 117 115 111 115 120 128 117 102 82 88 87 63 45 44 69 57 30 32 13 349 339 300 291